User: anonymous   Login
Location: Unspecified
(0.0000°N, 0.0000°E)
Time: 21:57:37
(UTC+00:00)
Language:

OBJECT G - Orbit

View from above orbital plane
View from above orbital plane
View from above satellite
View from above satellite

Ground track
Ground track

The orbit data is extracted from the following two-line orbital elements,

1 41789U 16059G   17082.85487509 +.00000069 +00000-0 +22461-4 0  9998
2 41789 098.1769 145.4050 0029824 064.1867 296.2389 14.64019605026123
Epoch (UTC): 23 March 2017 20:31:01
Eccentricity: 0.0029824
inclination: 98.1769°
perigee height: 659 km
apogee height: 701 km
right ascension of ascending node: 145.4050°
argument of perigee: 64.1867°
revolutions per day: 14.64019605
mean anomaly at epoch: 296.2389°
orbit number at epoch: 2612

The dashed part of the orbit path shows where the satellite is in the earth's shadow,  

DLR